Humidity-temperature Sensor

Selected Measurement Type: Relative Humidity

 
Relative Humidity [%]     6 entries per hour
Showing data from 9/12/2017 (00:00:00 Z) to 9/11/2017 (00:01:00 Z)
Previous Next [ Day | 3-Days | 7-Days ]
First Last
Prev [ Day | 3-Days | 7-Days ] Next
First Last

Start Time:     :
End Time:     :     
Time (in GMT) :00 :50 :40 :30 :20 :10
Previous Next [ Day | 3-Days | 7-Days ]
First Last
Prev [ Day | 3-Days | 7-Days ] Next
First Last


123 => good data
MM => data is determined as missing
-- => data not received/configured
Back to Top Back to Top
9/12/2017 00:00 to 23:10 77.17 79.04 79.86 80.47 77.12 75.94
9/11/2017 23:00 to 22:10 74.30 74.79 76.39 75.65 77.33 76.91
9/11/2017 22:00 to 21:10 75.92 76.24 75.46 75.61 75.12 75.71
9/11/2017 21:00 to 20:10 74.43 73.61 73.06 74.74 72.74 73.50
9/11/2017 20:00 to 19:10 74.30 74.13 74.32 73.71 74.60 74.91
9/11/2017 19:00 to 18:10 73.98 72.62 73.86 72.83 75.42 76.24
9/11/2017 18:00 to 17:10 78.22 78.32 78.51 78.91 79.95 80.64
9/11/2017 17:00 to 16:10 79.42 79.40 80.45 81.21 78.47 78.60
9/11/2017 16:00 to 15:10 80.45 81.67 77.27 79.90 79.95 79.86
9/11/2017 15:00 to 14:10 77.35 76.11 75.80 74.89 76.70 76.87
9/11/2017 14:00 to 13:10 74.62 75.19 78.01 81.27 84.94 84.90
9/11/2017 13:00 to 12:10 85.95 75.40 73.54 76.41 76.72 75.90
9/11/2017 12:00 to 11:10 78.03 77.97 77.75 78.96 77.92 77.97
9/11/2017 11:00 to 10:10 77.67 81.78 81.23 79.99 79.90 80.51
9/11/2017 10:00 to 9:10 80.28 82.87 81.46 87.02 83.02 80.20
9/11/2017 09:00 to 8:10 80.41 80.58 79.31 80.01 79.88 80.26
9/11/2017 08:00 to 7:10 80.20 79.86 80.13 80.05 80.98 79.90
9/11/2017 07:00 to 6:10 81.42 81.36 81.44 82.56 82.24 83.02
9/11/2017 06:00 to 5:10 -- -- -- -- -- --
9/11/2017 05:00 to 4:10 85.80 89.72 89.76 83.38 81.21 81.10
9/11/2017 04:00 to 3:10 79.90 79.50 79.67 80.24 79.86 80.72
9/11/2017 03:00 to 2:10 80.64 81.23 81.84 80.39 82.49 82.83
9/11/2017 02:00 to 1:10 81.10 79.04 82.83 81.48 78.87 78.24
9/11/2017 01:00 to 0:10 77.29 83.78 72.55 71.31 72.93 73.46